| time (UTC) | temp F | wind direction | speed MPH | gust MPH | rain 1hr in | rain 24hr in | rain mn in | humidity % | barometer mb |
| 20260831193053 | 73 | 28 | 11.0 | 18.0 | 0.00 | 0.00 | 0.00 | 28 | 1009.4 |
| 20260831191550 | 72 | 55 | 9.0 | 18.0 | 0.00 | 0.00 | 0.00 | 31 | 1009.7 |
| 20260831190104 | 72 | 66 | 8.0 | 15.0 | 0.00 | 0.00 | 0.00 | 32 | 1010.1 |
| 20260831184544 | 71 | 65 | 12.0 | 15.0 | 0.00 | 0.00 | 0.00 | 33 | 1010.3 |
| 20260831183041 | 71 | 36 | 10.0 | 16.0 | 0.00 | 0.00 | 0.00 | 34 | 1010.6 |
| 20260831181538 | 70 | 42 | 8.0 | 13.0 | 0.00 | 0.00 | 0.00 | 35 | 1010.8 |
| 20260831180043 | 69 | 57 | 10.0 | 14.0 | 0.00 | 0.00 | 0.00 | 37 | 1011.1 |
| 20260831174537 | 67 | 34 | 9.0 | 14.0 | 0.00 | 0.00 | 0.00 | 39 | 1011.1 |
| 20260831173027 | 66 | 63 | 6.0 | 12.0 | 0.00 | 0.00 | 0.00 | 42 | 1011.1 |
| 20260831171525 | 65 | 24 | 8.0 | 15.0 | 0.00 | 0.00 | 0.00 | 44 | 1011.3 |
| 20260831170023 | 64 | 55 | 8.0 | 11.0 | 0.00 | 0.00 | 0.00 | 46 | 1011.4 |
| 20260831164537 | 63 | 75 | 8.0 | 12.0 | 0.00 | 0.00 | 0.00 | 47 | 1011.6 |
| 20260831163023 | 63 | 57 | 7.0 | 11.0 | 0.00 | 0.00 | 0.00 | 47 | 1011.7 |
| 20260831161520 | 64 | 61 | 8.0 | 13.0 | 0.00 | 0.00 | 0.00 | 46 | 1011.8 |
| 20260831160018 | 63 | 58 | 9.0 | 13.0 | 0.00 | 0.00 | 0.00 | 47 | 1012.0 |
| 20260831154515 | 62 | 99 | 4.0 | 8.0 | 0.00 | 0.00 | 0.00 | 52 | 1012.0 |
| 20260831153012 | 61 | 94 | 6.0 | 8.0 | 0.00 | 0.00 | 0.00 | 53 | 1012.1 |
| 20260831151512 | 60 | 193 | 1.0 | 2.0 | 0.00 | 0.00 | 0.00 | 64 | 1011.9 |
| 20260831150010 | 59 | 193 | 1.0 | 2.0 | 0.00 | 0.00 | 0.00 | 66 | 1011.8 |
| 20260831144512 | 57 | 193 | 0.0 | 0.0 | 0.00 | 0.00 | 0.00 | 70 | 1011.4 |
| 20260831143010 | 54 | 193 | 1.0 | 2.0 | 0.00 | 0.00 | 0.00 | 77 | 1011.4 |
| 20260831141504 | 50 | 193 | 0.0 | 2.0 | 0.00 | 0.00 | 0.00 | 83 | 1011.4 |
| 20260831140002 | 47 | 193 | 0.0 | 2.0 | 0.00 | 0.00 | 0.00 | 85 | 1011.4 |
| 20260831134501 | 46 | 193 | 1.0 | 2.0 | 0.00 | 0.00 | 0.00 | 84 | 1011.5 |
| 20260831133059 | 46 | 193 | 0.0 | 2.0 | 0.00 | 0.00 | 0.00 | 82 | 1011.5 |
| 20260831131600 | 47 | 193 | 1.0 | 3.0 | 0.00 | 0.00 | 0.00 | 80 | 1011.5 |
| 20260831130055 | 48 | 215 | 0.0 | 2.0 | 0.00 | 0.00 | 0.00 | 78 | 1011.4 |
| 20260831124552 | 49 | 215 | 0.0 | 3.0 | 0.00 | 0.00 | 0.00 | 76 | 1011.4 |
| 20260831123049 | 50 | 215 | 1.0 | 3.0 | 0.00 | 0.00 | 0.00 | 80 | 1011.4 |
| 20260831121549 | 50 | 215 | 2.0 | 4.0 | 0.00 | 0.00 | 0.00 | 81 | 1011.3 |
| 20260831120046 | 51 | 242 | 0.0 | 0.0 | 0.00 | 0.00 | 0.00 | 77 | 1011.3 |
| 20260831114544 | 51 | 242 | 0.0 | 2.0 | 0.00 | 0.00 | 0.00 | 77 | 1011.3 |
| 20260831113041 | 52 | 202 | 2.0 | 3.0 | 0.00 | 0.00 | 0.00 | 75 | 1011.4 |
| 20260831111551 | 53 | 196 | 1.0 | 3.0 | 0.00 | 0.00 | 0.00 | 74 | 1011.3 |
| 20260831110045 | 54 | 178 | 1.0 | 5.0 | 0.00 | 0.00 | 0.00 | 73 | 1011.4 |
| 20260831104549 | 56 | 205 | 4.0 | 7.0 | 0.00 | 0.00 | 0.00 | 70 | 1011.4 |
| 20260831103037 | 56 | 216 | 6.0 | 7.0 | 0.00 | 0.00 | 0.00 | 69 | 1011.3 |
| 20260831101534 | 56 | 205 | 5.0 | 7.0 | 0.00 | 0.00 | 0.00 | 70 | 1011.3 |
| 20260831100032 | 55 | 208 | 3.0 | 6.0 | 0.00 | 0.00 | 0.00 | 70 | 1011.4 |
| 20260831094531 | 55 | 205 | 2.0 | 5.0 | 0.00 | 0.00 | 0.00 | 68 | 1011.5 |
| 20260831093037 | 56 | 203 | 4.0 | 5.0 | 0.00 | 0.00 | 0.00 | 69 | 1011.6 |
| 20260831091526 | 56 | 195 | 3.0 | 5.0 | 0.00 | 0.00 | 0.00 | 67 | 1011.7 |
| 20260831090025 | 57 | 215 | 5.0 | 7.0 | 0.00 | 0.00 | 0.00 | 66 | 1011.8 |
| 20260831084524 | 55 | 203 | 3.0 | 5.0 | 0.00 | 0.00 | 0.00 | 70 | 1012.0 |
| 20260831083022 | 55 | 207 | 2.0 | 5.0 | 0.00 | 0.00 | 0.00 | 67 | 1012.1 |
| 20260831081522 | 55 | 202 | 3.0 | 5.0 | 0.00 | 0.00 | 0.00 | 67 | 1012.0 |
| 20260831080023 | 57 | 202 | 4.0 | 6.0 | 0.00 | 0.00 | 0.00 | 65 | 1012.1 |
| 20260831074521 | 57 | 207 | 5.0 | 7.0 | 0.00 | 0.00 | 0.00 | 65 | 1012.3 |
| 20260831073017 | 55 | 206 | 2.0 | 4.0 | 0.00 | 0.00 | 0.00 | 65 | 1012.4 |
| 20260831071527 | 56 | 216 | 2.0 | 3.0 | 0.00 | 0.00 | 0.00 | 64 | 1012.5 |
| 20260831070011 | 58 | 216 | 0.0 | 1.0 | 0.00 | 0.00 | 0.00 | 60 | 1012.5 |
| 20260831064510 | 58 | 216 | 1.0 | 3.0 | 0.00 | 0.00 | 0.00 | 61 | 1012.5 |
| 20260831063009 | 59 | 169 | 3.0 | 4.0 | 0.00 | 0.00 | 0.00 | 60 | 1012.5 |
| 20260831061509 | 60 | 232 | 4.0 | 8.0 | 0.00 | 0.00 | 0.00 | 58 | 1012.4 |
| 20260831060008 | 61 | 229 | 6.0 | 9.0 | 0.00 | 0.00 | 0.00 | 55 | 1012.4 |
| 20260831054508 | 61 | 216 | 9.0 | 11.0 | 0.00 | 0.00 | 0.00 | 55 | 1012.4 |
| 20260831053016 | 60 | 217 | 7.0 | 9.0 | 0.00 | 0.00 | 0.00 | 55 | 1012.4 |
| 20260831051506 | 63 | 228 | 7.0 | 10.0 | 0.00 | 0.00 | 0.00 | 53 | 1012.4 |
| 20260831050006 | 61 | 218 | 8.0 | 11.0 | 0.00 | 0.00 | 0.00 | 53 | 1012.4 |
| 20260831044506 | 63 | 217 | 7.0 | 10.0 | 0.00 | 0.00 | 0.00 | 50 | 1012.5 |
| 20260831043005 | 64 | 233 | 8.0 | 11.0 | 0.00 | 0.00 | 0.00 | 49 | 1012.6 |
| 20260831041505 | 65 | 246 | 9.0 | 12.0 | 0.00 | 0.00 | 0.00 | 47 | 1012.5 |
| 20260831040006 | 65 | 236 | 9.0 | 13.0 | 0.00 | 0.00 | 0.00 | 47 | 1012.5 |
| 20260831034504 | 64 | 233 | 8.0 | 11.0 | 0.00 | 0.00 | 0.00 | 47 | 1012.3 |
| 20260831033005 | 66 | 226 | 8.0 | 12.0 | 0.00 | 0.00 | 0.00 | 44 | 1012.3 |
| 20260831031509 | 66 | 245 | 8.0 | 10.0 | 0.00 | 0.00 | 0.00 | 43 | 1012.2 |
| 20260831030003 | 68 | 238 | 9.0 | 11.0 | 0.00 | 0.00 | 0.00 | 41 | 1012.2 |
| 20260831024502 | 69 | 231 | 8.0 | 11.0 | 0.00 | 0.00 | 0.00 | 39 | 1012.2 |
| 20260831023001 | 71 | 245 | 7.0 | 10.0 | 0.00 | 0.00 | 0.00 | 34 | 1012.2 |
| 20260831021503 | 72 | 238 | 7.0 | 12.0 | 0.00 | 0.00 | 0.00 | 31 | 1012.2 |
| 20260831014603 | 74 | 241 | 6.0 | 10.0 | 0.00 | 0.00 | 0.00 | 28 | 1012.1 |
| 20260831013059 | 74 | 244 | 7.0 | 11.0 | 0.00 | 0.00 | 0.00 | 27 | 1012.2 |
| 20260831011559 | 75 | 257 | 7.0 | 12.0 | 0.00 | 0.00 | 0.00 | 26 | 1012.2 |
| 20260831010058 | 74 | 267 | 9.0 | 14.0 | 0.00 | 0.00 | 0.00 | 26 | 1012.4 |
| 20260831004557 | 75 | 246 | 9.0 | 12.0 | 0.00 | 0.00 | 0.00 | 27 | 1012.4 |
| 20260831003101 | 75 | 219 | 10.0 | 13.0 | 0.00 | 0.00 | 0.00 | 27 | 1012.6 |
| 20260831001557 | 75 | 267 | 8.0 | 14.0 | 0.00 | 0.00 | 0.00 | 26 | 1012.6 |
| 20260831000053 | 75 | 238 | 7.0 | 14.0 | 0.00 | 0.00 | 0.00 | 25 | 1012.9 |
| 20260830234600 | 74 | 244 | 11.0 | 15.0 | 0.00 | 0.00 | 0.00 | 24 | 1013.0 |
| 20260830233049 | 74 | 253 | 6.0 | 15.0 | 0.00 | 0.00 | 0.00 | 24 | 1013.2 |
| 20260830231550 | 74 | 221 | 10.0 | 16.0 | 0.00 | 0.00 | 0.00 | 23 | 1013.2 |
| 20260830230048 | 74 | 227 | 9.0 | 16.0 | 0.00 | 0.00 | 0.00 | 24 | 1013.3 |
| 20260830224544 | 74 | 221 | 9.0 | 17.0 | 0.00 | 0.00 | 0.00 | 24 | 1013.5 |
| 20260830223042 | 73 | 256 | 6.0 | 17.0 | 0.00 | 0.00 | 0.00 | 22 | 1013.6 |
| 20260830221541 | 72 | 269 | 13.0 | 20.0 | 0.00 | 0.00 | 0.00 | 19 | 1013.8 |
| 20260830220037 | 72 | 230 | 6.0 | 14.0 | 0.00 | 0.00 | 0.00 | 29 | 1014.3 |
| 20260830214543 | 72 | 275 | 9.0 | 18.0 | 0.00 | 0.00 | 0.00 | 27 | 1014.5 |
| 20260830213033 | 71 | 231 | 10.0 | 16.0 | 0.00 | 0.00 | 0.00 | 26 | 1014.7 |
| 20260830211534 | 71 | 231 | 10.0 | 18.0 | 0.00 | 0.00 | 0.00 | 29 | 1014.7 |
| 20260830210031 | 70 | 232 | 10.0 | 17.0 | 0.00 | 0.00 | 0.00 | 27 | 1014.7 |
| 20260830204528 | 69 | 229 | 9.0 | 16.0 | 0.00 | 0.00 | 0.00 | 31 | 1014.7 |
| 20260830203043 | 69 | 229 | 10.0 | 16.0 | 0.00 | 0.00 | 0.00 | 30 | 1015.0 |
| 20260830201523 | 68 | 224 | 11.0 | 18.0 | 0.00 | 0.00 | 0.00 | 34 | 1015.1 |
| 20260830200021 | 68 | 252 | 10.0 | 15.0 | 0.00 | 0.00 | 0.00 | 36 | 1015.1 |
| 20260830194519 | 67 | 261 | 12.0 | 21.0 | 0.00 | 0.00 | 0.00 | 38 | 1015.4 |